QPF
0.00 0.00 0.00 0.00 0.00 0.00 0.00 0.00 0.00 0.00 0.00 0.00 0.00 0.00 0.00 0.00 0.00 0.00 0.00 0.00 0.00 0.00 0.00 0.00 0.00 0.00 0.00 0.00 0.00 0.00 0.00 0.01 0.01 0.01 0.01 0.01 0.01 0.01
0.00 0.00 0.00 0.00 0.00 0.00 0.00 0.00 0.00 0.00 0.00 0.00 0.00 0.00 0.00 0.00 0.00 0.00 0.00 0.00 0.00 0.00 0.00 0.00 0.00 0.00 0.00 0.00 0.00 0.00 0.01 0.01 0.01 0.01 0.01 0.01 0.01 0.02
0.00 0.00 0.00 0.00 0.00 0.00 0.00 0.00 0.00 0.00 0.00 0.00 0.00 0.00 0.00 0.00 0.00 0.00 0.00 0.00 0.00 0.00 0.00 0.00 0.00 0.00 0.00 0.00 0.00 0.00 0.01 0.01 0.01 0.01 0.01 0.01 0.02 0.02
0.00 0.00 0.00 0.00 0.00 0.00 0.00 0.00 0.00 0.00 0.00 0.00 0.00 0.00 0.00 0.00 0.00 0.00 0.00 0.00 0.00 0.00 0.00 0.00 0.00 0.00 0.00 0.00 0.00 0.00 0.00 0.00 0.01 0.01 0.01 0.01 0.01 0.01
0.00 0.00 0.00 0.00 0.00 0.00 0.00 0.00 0.00 0.00 0.00 0.00 0.00 0.00 0.00 0.00 0.00 0.00 0.00 0.00 0.00 0.00 0.00 0.00 0.00 0.00 0.00 0.00 0.00 0.00 0.00 0.00 0.01 0.01 0.01 0.01 0.01 0.00
0.00 0.00 0.00 0.00 0.00 0.00 0.00 0.00 0.00 0.00 0.00 0.00 0.00 0.00 0.00 0.00 0.00 0.00 0.00 0.00 0.00 0.00 0.00 0.00 0.00 0.00 0.00 0.00 0.00 0.00 0.00 0.01 0.01 0.01 0.01 0.00 0.00 0.00
0.00 0.00 0.00 0.00 0.00 0.00 0.00 0.00 0.00 0.00 0.00 0.00 0.00 0.00 0.00 0.00 0.00 0.00 0.00 0.00 0.00 0.00 0.00 0.00 0.00 0.00 0.00 0.00 0.00 0.00 0.00 0.01 0.00 0.00 0.00 0.00 0.00 0.00
0.00 0.00 0.00 0.00 0.00 0.00 0.00 0.00 0.00 0.00 0.00 0.00 0.00 0.00 0.00 0.00 0.00 0.01 0.00 0.01 0.01 0.00 0.00 0.00 0.00 0.00 0.00 0.00 0.00 0.00 0.00 0.00 0.00 0.01 0.01 0.00 0.00 0.00
0.00 0.00 0.00 0.00 0.00 0.00 0.00 0.00 0.00 0.00 0.00 0.00 0.00 0.00 0.00 0.00 0.01 0.01 0.00 0.01 0.01 0.00 0.00 0.01 0.00 0.00 0.00 0.01 0.00 0.00 0.00 0.00 0.01 0.01 0.00 0.00 0.00 0.00
0.00 0.00 0.00 0.00 0.00 0.00 0.00 0.00 0.00 0.00 0.00 0.00 0.00 0.00 0.00 0.00 0.00 0.01 0.01 0.01 0.00 0.00 0.01 0.01 0.01 0.01 0.00 0.01 0.00 0.00 0.00 0.00 0.00 0.00 0.00 0.00 0.00 0.00
0.00 0.00 0.00 0.00 0.00 0.00 0.00 0.00 0.00 0.00 0.00 0.00 0.00 0.00 0.00 0.00 0.00 0.00 0.01 0.01 0.01 0.01 0.02 0.01 0.01 0.01 0.00 0.00 0.01 0.00 0.00 0.00 0.00 0.00 0.00 0.00 0.00 0.01
0.00 0.00 0.00 0.00 0.00 0.00 0.00 0.00 0.00 0.00 0.00 0.00 0.00 0.00 0.00 0.00 0.00 0.00 0.01 0.01 0.01 0.01 0.01 0.00 0.01 0.01 0.00 0.00 0.01 0.01 0.01 0.00 0.00 0.00 0.01 0.01 0.00 0.01
0.00 0.00 0.00 0.00 0.00 0.00 0.00 0.00 0.00 0.00 0.00 0.00 0.00 0.00 0.00 0.00 0.00 0.00 0.01 0.02 0.01 0.02 0.01 0.00 0.01 0.01 0.00 0.01 0.01 0.01 0.01 0.01 0.01 0.01 0.00 0.01 0.01 0.00
0.00 0.00 0.00 0.00 0.00 0.00 0.00 0.00 0.00 0.00 0.00 0.00 0.00 0.00 0.00 0.01 0.00 0.01 0.01 0.01 0.01 0.01 0.01 0.00 0.00 0.00 0.00 0.00 0.01 0.00 0.01 0.01 0.01 0.01 0.00 0.00 0.00 0.00
0.00 0.00 0.00 0.00 0.00 0.00 0.00 0.00 0.00 0.00 0.00 0.00 0.00 0.00 0.01 0.01 0.00 0.00 0.00 0.00 0.00 0.00 0.00 0.00 0.00 0.00 0.00 0.00 0.00 0.00 0.01 0.01 0.01 0.01 0.00 0.00 0.00 0.00
0.00 0.00 0.00 0.00 0.00 0.00 0.00 0.00 0.00 0.00 0.00 0.00 0.00 0.00 0.00 0.00 0.00 0.01 0.00 0.00 0.00 0.00 0.00 0.00 0.00 0.00 0.00 0.00 0.00 0.00 0.01 0.01 0.01 0.01 0.01 0.00 0.00 0.00
0.00 0.00 0.00 0.00 0.00 0.00 0.00 0.00 0.00 0.00 0.00 0.00 0.00 0.00 0.00 0.00 0.00 0.01 0.00 0.00 0.00 0.00 0.00 0.00 0.00 0.00 0.00 0.00 0.00 0.00 0.01 0.01 0.01 0.01 0.01 0.01 0.01 0.00
0.00 0.00 0.00 0.00 0.00 0.00 0.00 0.00 0.00 0.00 0.00 0.00 0.00 0.00 0.00 0.00 0.00 0.01 0.00 0.00 0.00 0.00 0.00 0.00 0.00 0.00 0.01 0.00 0.00 0.00 0.01 0.01 0.01 0.01 0.01 0.00 0.00 0.01
0.00 0.00 0.00 0.00 0.00 0.00 0.00 0.00 0.00 0.00 0.00 0.00 0.00 0.00 0.00 0.00 0.00 0.00 0.01 0.00 0.00 0.00 0.00 0.00 0.00 0.00 0.00 0.00 0.00 0.00 0.00 0.01 0.02 0.01 0.00 0.00 0.00 0.00
0.00 0.00 0.00 0.00 0.00 0.00 0.00 0.00 0.00 0.00 0.00 0.00 0.00 0.00 0.00 0.00 0.00 0.00 0.01 0.00 0.00 0.00 0.00 0.00 0.00 0.00 0.00 0.00 0.00 0.01 0.00 0.00 0.00 0.01 0.01 0.01 0.01 0.00
0.00 0.00 0.00 0.00 0.00 0.00 0.00 0.00 0.00 0.00 0.00 0.00 0.00 0.00 0.00 0.00 0.00 0.00 0.01 0.01 0.00 0.00 0.00 0.00 0.00 0.00 0.00 0.00 0.00 0.00 0.01 0.00 0.00 0.00 0.00 0.01 0.01 0.00
0.00 0.00 0.00 0.00 0.00 0.00 0.00 0.00 0.00 0.00 0.00 0.00 0.00 0.00 0.00 0.00 0.00 0.00 0.01 0.00 0.00 0.00 0.00 0.00 0.00 0.00 0.00 0.00 0.00 0.00 0.00 0.01 0.00 0.00 0.00 0.00 0.00 0.00
0.00 0.00 0.00 0.00 0.00 0.00 0.00 0.00 0.00 0.00 0.00 0.00 0.00 0.00 0.00 0.00 0.00 0.00 0.01 0.00 0.00 0.00 0.00 0.00 0.00 0.00 0.00 0.00 0.00 0.00 0.00 0.00 0.00 0.00 0.00 0.00 0.00 0.00
MSLP
1028.12 1027.93 1027.60 1027.63 1027.41 1027.22 1027.07 1026.74 1026.33 1024.78 1023.59 1023.00 1023.15 1023.44 1023.64 1023.47 1022.94 1022.63 1021.85 1021.27 1020.66 1019.87 1019.52 1019.09 1018.42 1017.74 1017.06 1016.41 1015.65 1014.86 1014.04 1013.26 1012.54 1011.86 1011.21 1010.54 1009.88 1009.10
1028.24 1028.20 1028.09 1027.86 1027.54 1027.34 1027.31 1027.07 1026.71 1026.11 1024.84 1024.09 1024.02 1024.05 1024.04 1023.69 1023.10 1022.78 1022.02 1021.03 1019.89 1019.40 1019.10 1018.58 1018.00 1017.34 1016.72 1016.08 1015.43 1014.68 1013.87 1013.08 1012.35 1011.60 1010.88 1010.12 1009.45 1008.72
1028.60 1028.49 1028.41 1028.29 1027.86 1027.67 1027.57 1027.18 1026.78 1026.48 1025.90 1024.96 1024.89 1024.26 1024.16 1023.74 1023.09 1022.63 1021.75 1020.62 1019.41 1018.92 1018.47 1017.95 1017.36 1016.91 1016.38 1015.76 1015.07 1014.42 1013.69 1012.97 1012.25 1011.53 1010.79 1010.07 1009.30 1008.58
1028.93 1028.72 1028.58 1028.35 1028.15 1027.99 1027.67 1027.32 1027.06 1027.20 1027.11 1026.11 1025.23 1024.50 1024.29 1023.77 1023.27 1022.41 1021.36 1020.39 1019.54 1018.28 1018.13 1017.47 1016.90 1016.44 1015.79 1015.07 1014.49 1013.94 1013.35 1012.77 1012.12 1011.27 1010.55 1009.87 1009.16 1008.49
1029.24 1028.97 1028.84 1028.77 1028.50 1028.34 1027.97 1027.56 1027.60 1027.75 1027.32 1026.57 1025.40 1024.88 1024.27 1023.72 1023.08 1022.17 1021.14 1020.14 1019.10 1018.30 1017.56 1016.95 1016.42 1015.75 1015.11 1014.46 1013.99 1013.63 1013.16 1012.54 1011.83 1011.04 1010.34 1009.77 1009.12 1008.46
1029.50 1029.37 1029.23 1029.23 1029.27 1028.97 1028.47 1028.19 1028.16 1027.73 1027.08 1026.51 1025.80 1024.96 1024.45 1023.81 1023.28 1022.04 1021.03 1020.17 1019.10 1018.06 1017.45 1017.00 1016.12 1015.35 1014.69 1014.27 1013.97 1013.68 1013.25 1012.53 1011.80 1011.04 1010.28 1009.62 1009.05 1008.37
1029.25 1029.28 1029.32 1030.14 1030.15 1030.11 1029.66 1029.05 1028.61 1028.05 1027.48 1026.78 1025.95 1025.31 1024.44 1023.83 1023.30 1022.47 1021.39 1020.28 1019.05 1018.28 1017.41 1016.64 1015.74 1015.11 1014.52 1014.20 1014.05 1013.90 1013.44 1012.62 1011.89 1011.15 1010.40 1009.72 1009.04 1008.31
1029.18 1029.12 1028.98 1029.27 1029.35 1029.61 1029.53 1029.50 1029.22 1028.67 1027.91 1027.14 1026.29 1025.41 1024.68 1024.39 1023.67 1022.79 1021.67 1020.54 1019.18 1018.58 1017.54 1016.57 1015.84 1015.26 1014.77 1014.53 1014.62 1014.19 1013.56 1012.81 1012.14 1011.40 1010.60 1009.80 1008.98 1008.29
1029.32 1029.16 1028.74 1028.58 1028.97 1029.05 1028.58 1028.32 1027.85 1027.98 1027.91 1027.54 1026.28 1025.63 1025.06 1024.64 1023.98 1022.90 1021.99 1021.10 1019.94 1018.78 1017.87 1016.99 1016.42 1015.71 1015.10 1014.75 1014.75 1014.35 1013.67 1013.04 1012.27 1011.50 1010.64 1009.78 1009.05 1008.44
1029.44 1029.28 1029.06 1028.86 1029.44 1029.65 1028.54 1027.68 1027.27 1027.14 1027.12 1026.84 1026.55 1025.90 1025.39 1024.85 1024.19 1023.17 1022.34 1021.27 1020.27 1019.01 1018.42 1017.66 1017.01 1016.09 1015.33 1014.79 1014.78 1014.44 1013.85 1013.27 1012.49 1011.62 1010.74 1009.90 1009.17 1008.70
1029.08 1029.11 1029.48 1029.17 1030.22 1029.91 1028.66 1027.78 1027.46 1027.30 1026.99 1026.80 1026.41 1025.86 1025.26 1024.63 1023.90 1023.07 1022.17 1021.35 1020.23 1019.37 1018.93 1018.89 1017.63 1016.59 1015.81 1015.42 1014.82 1014.54 1014.03 1013.47 1012.68 1011.88 1011.08 1010.21 1009.41 1008.90
1028.57 1028.64 1030.05 1030.00 1030.05 1029.76 1028.95 1028.09 1027.78 1027.81 1027.15 1026.53 1025.83 1025.11 1024.60 1023.87 1023.36 1022.88 1022.32 1021.48 1020.77 1019.75 1019.68 1019.48 1018.30 1017.66 1016.36 1015.58 1015.17 1014.87 1014.32 1013.82 1012.99 1012.32 1011.64 1010.95 1010.15 1009.59
1028.50 1028.48 1028.51 1029.91 1029.92 1029.65 1029.38 1028.47 1028.49 1027.97 1027.11 1026.48 1025.84 1025.14 1024.43 1023.82 1023.45 1022.83 1022.14 1021.57 1020.96 1020.47 1020.36 1019.99 1019.14 1018.41 1017.62 1016.60 1015.73 1015.45 1014.91 1014.41 1013.59 1012.99 1012.43 1011.86 1011.40 1010.82
1028.56 1028.59 1028.64 1029.81 1029.71 1029.43 1028.85 1028.71 1028.17 1027.78 1026.90 1026.35 1025.68 1025.14 1024.43 1023.72 1023.23 1022.54 1021.84 1021.42 1021.17 1020.75 1020.29 1020.18 1019.64 1019.05 1018.32 1017.32 1016.61 1015.99 1015.35 1015.05 1014.38 1013.95 1013.44 1012.89 1012.33 1011.84
1028.71 1029.38 1029.61 1029.53 1029.22 1028.57 1028.33 1028.17 1027.85 1027.20 1026.73 1026.14 1025.65 1025.15 1024.48 1023.73 1022.98 1022.30 1021.82 1021.61 1021.06 1020.75 1020.47 1020.28 1020.03 1019.41 1018.78 1018.20 1017.63 1016.84 1015.93 1015.72 1015.21 1014.89 1014.50 1013.99 1013.58 1013.10
1028.97 1028.35 1028.84 1029.13 1028.72 1028.27 1027.68 1027.45 1027.33 1027.05 1026.69 1026.12 1025.65 1025.20 1024.52 1023.72 1023.01 1022.42 1021.95 1021.64 1021.08 1020.81 1020.36 1020.38 1020.02 1019.69 1019.22 1018.83 1018.30 1017.58 1016.90 1016.54 1016.24 1015.72 1015.48 1015.13 1014.71 1014.36
1029.13 1028.07 1028.02 1027.95 1027.70 1027.51 1027.60 1027.50 1027.20 1026.77 1026.43 1026.10 1025.68 1025.21 1024.68 1023.99 1023.23 1022.52 1022.09 1021.83 1021.45 1021.08 1020.72 1020.41 1019.74 1019.43 1019.78 1019.49 1018.93 1018.41 1017.69 1017.28 1017.06 1016.51 1016.02 1015.85 1015.73 1015.55
1028.52 1027.88 1027.87 1027.89 1027.81 1027.66 1027.62 1027.42 1027.21 1026.87 1026.51 1026.17 1025.85 1025.45 1024.90 1024.32 1023.62 1022.76 1022.20 1022.06 1021.76 1021.43 1021.06 1020.72 1020.14 1019.41 1019.70 1019.79 1020.03 1019.31 1018.35 1017.79 1017.62 1017.27 1016.84 1016.52 1016.53 1016.47
1028.20 1027.77 1027.72 1027.71 1027.65 1027.48 1027.66 1027.47 1027.29 1026.95 1026.57 1026.26 1025.97 1025.61 1025.14 1024.56 1023.93 1023.10 1022.41 1022.03 1021.91 1021.66 1021.33 1021.00 1020.70 1020.26 1019.79 1019.78 1020.15 1020.43 1019.48 1018.60 1017.91 1017.68 1017.56 1017.35 1017.31 1017.61
1027.67 1027.41 1027.33 1027.28 1027.28 1027.33 1027.56 1027.53 1027.33 1026.91 1026.54 1026.30 1025.96 1025.68 1025.26 1024.66 1023.96 1023.30 1022.58 1022.17 1022.03 1021.74 1021.41 1021.30 1021.23 1021.04 1020.61 1020.49 1020.40 1020.71 1020.58 1019.63 1018.89 1018.21 1017.92 1017.77 1017.71 1017.78
1027.04 1027.07 1027.12 1027.10 1027.09 1027.29 1027.52 1027.49 1027.27 1026.91 1026.58 1026.31 1025.93 1025.66 1025.25 1024.70 1024.02 1023.45 1022.78 1022.41 1022.23 1021.91 1021.68 1021.69 1021.69 1021.54 1020.63 1020.23 1020.49 1020.65 1020.82 1020.74 1020.36 1019.69 1018.85 1018.01 1017.97 1017.95
1026.63 1026.74 1026.86 1026.94 1027.01 1027.21 1027.36 1027.32 1027.02 1026.74 1026.45 1026.17 1025.92 1025.51 1025.11 1024.64 1023.99 1023.52 1022.91 1022.53 1022.28 1022.04 1021.94 1021.92 1021.59 1021.08 1020.79 1020.72 1020.86 1020.90 1020.78 1020.67 1020.60 1020.57 1020.30 1019.86 1019.20 1018.99
1026.28 1026.46 1026.68 1026.83 1026.93 1027.09 1027.20 1027.15 1027.03 1026.77 1026.49 1026.27 1026.00 1025.55 1025.06 1024.52 1023.99 1023.62 1022.95 1022.70 1022.30 1022.18 1021.98 1021.81 1021.54 1021.36 1021.24 1021.14 1021.11 1021.03 1020.94 1020.68 1020.45 1020.38 1020.79 1020.76 1020.48 1020.29
Thickness
5525 5524 5523 5518 5516 5513 5509 5506 5502 5509 5511 5510 5500 5488 5477 5467 5461 5453 5448 5440 5433 5427 5418 5408 5400 5393 5388 5382 5375 5369 5365 5361 5358 5358 5359 5363 5368 5374
5519 5517 5514 5512 5509 5506 5500 5496 5492 5490 5492 5491 5482 5471 5462 5453 5445 5436 5429 5425 5420 5411 5400 5392 5386 5382 5376 5369 5363 5357 5351 5346 5341 5340 5342 5346 5351 5358
5513 5510 5507 5504 5502 5498 5492 5489 5485 5480 5477 5474 5465 5460 5450 5440 5432 5422 5415 5410 5408 5396 5387 5383 5377 5371 5364 5359 5353 5347 5340 5333 5326 5322 5324 5330 5337 5343
5507 5505 5502 5499 5495 5490 5486 5482 5477 5467 5458 5455 5453 5448 5437 5428 5418 5411 5406 5399 5393 5386 5378 5374 5369 5363 5358 5353 5346 5339 5331 5324 5318 5315 5316 5322 5327 5332
5500 5499 5496 5491 5487 5482 5479 5475 5466 5455 5448 5444 5443 5435 5427 5418 5409 5401 5394 5388 5382 5375 5373 5369 5363 5358 5353 5347 5339 5332 5324 5319 5315 5312 5312 5315 5319 5324
5495 5492 5487 5482 5476 5473 5470 5464 5455 5448 5443 5437 5431 5425 5416 5407 5396 5392 5385 5376 5374 5368 5366 5360 5358 5353 5346 5338 5330 5323 5317 5313 5310 5308 5308 5310 5314 5319
5491 5486 5480 5471 5465 5459 5454 5450 5444 5438 5432 5426 5421 5412 5408 5399 5388 5378 5371 5368 5366 5361 5359 5356 5355 5348 5340 5331 5322 5315 5311 5308 5306 5305 5305 5307 5309 5313
5486 5481 5476 5470 5463 5455 5446 5438 5430 5425 5420 5415 5409 5405 5397 5385 5376 5367 5360 5360 5361 5355 5353 5352 5347 5341 5333 5324 5316 5311 5308 5306 5304 5303 5304 5305 5307 5310
5479 5475 5473 5468 5458 5450 5445 5439 5431 5421 5412 5405 5402 5395 5387 5377 5368 5360 5353 5349 5350 5351 5347 5343 5338 5332 5326 5320 5313 5309 5307 5305 5305 5304 5305 5306 5307 5308
5473 5469 5465 5460 5450 5441 5439 5435 5427 5417 5408 5400 5391 5384 5375 5368 5358 5351 5348 5346 5343 5344 5340 5335 5330 5327 5323 5319 5313 5309 5308 5306 5306 5306 5306 5306 5306 5304
5470 5464 5456 5451 5440 5433 5434 5429 5420 5410 5402 5393 5384 5376 5369 5361 5355 5349 5346 5343 5343 5340 5334 5323 5324 5321 5319 5315 5313 5310 5307 5306 5305 5305 5304 5303 5303 5301
5468 5461 5448 5441 5433 5427 5424 5421 5413 5401 5396 5388 5381 5374 5367 5360 5353 5346 5341 5338 5335 5336 5327 5318 5317 5313 5316 5315 5312 5307 5306 5303 5303 5301 5299 5299 5299 5297
5462 5456 5448 5435 5428 5421 5414 5410 5401 5395 5389 5383 5377 5369 5362 5355 5347 5341 5338 5334 5330 5324 5317 5310 5307 5304 5304 5306 5308 5304 5302 5299 5299 5297 5295 5294 5293 5293
5456 5449 5442 5429 5422 5415 5410 5403 5397 5390 5385 5378 5372 5364 5357 5351 5344 5339 5335 5330 5323 5318 5312 5305 5301 5298 5296 5299 5299 5299 5298 5295 5294 5292 5290 5289 5291 5291
5448 5439 5432 5425 5419 5416 5407 5400 5393 5387 5381 5374 5367 5359 5353 5347 5342 5337 5331 5324 5319 5312 5306 5300 5295 5292 5291 5290 5290 5291 5294 5291 5290 5288 5285 5285 5285 5286
5442 5438 5429 5422 5417 5411 5405 5397 5389 5382 5376 5370 5363 5355 5348 5343 5338 5333 5327 5320 5315 5308 5302 5295 5291 5287 5286 5283 5283 5285 5286 5285 5283 5283 5281 5278 5279 5279
5435 5433 5428 5422 5415 5408 5399 5391 5384 5378 5372 5364 5357 5350 5343 5337 5332 5329 5322 5314 5307 5300 5295 5290 5289 5286 5279 5277 5277 5277 5279 5279 5277 5279 5279 5276 5274 5273
5433 5430 5422 5414 5407 5401 5392 5385 5378 5372 5366 5359 5351 5344 5338 5331 5325 5323 5318 5308 5300 5293 5288 5284 5283 5286 5281 5276 5269 5270 5275 5275 5274 5274 5274 5273 5270 5268
5429 5424 5416 5409 5402 5396 5386 5379 5372 5366 5360 5353 5346 5339 5332 5325 5319 5316 5312 5306 5296 5289 5283 5280 5278 5278 5281 5276 5268 5262 5266 5270 5273 5271 5269 5268 5265 5260
5424 5419 5413 5406 5399 5391 5381 5373 5366 5361 5355 5348 5342 5335 5327 5321 5315 5312 5309 5303 5294 5288 5284 5279 5274 5272 5271 5268 5265 5260 5257 5261 5265 5268 5267 5265 5261 5259
5420 5414 5407 5400 5394 5385 5375 5368 5362 5357 5351 5344 5339 5332 5324 5318 5313 5308 5306 5299 5292 5287 5282 5277 5272 5269 5270 5269 5264 5260 5256 5253 5252 5255 5259 5265 5262 5259
5415 5408 5401 5394 5387 5379 5370 5364 5359 5353 5348 5342 5335 5330 5323 5316 5311 5306 5304 5298 5292 5287 5281 5275 5272 5271 5269 5266 5260 5257 5255 5252 5249 5247 5246 5247 5252 5254
5408 5402 5394 5387 5380 5372 5365 5359 5353 5348 5343 5337 5331 5326 5321 5315 5310 5305 5303 5297 5294 5288 5284 5279 5275 5271 5267 5264 5260 5257 5254 5253 5251 5248 5242 5240 5239 5238